sat.trackr.live / text

‹ back to catalog

STARLINK-3894

NORAD 52499 · 2022-049BA

PAYLOAD ACTIVE UNKNOWN

§ Identity

Operator
Country
US
Launch date
2022-05-06
Launch site
AFETR
Launch vehicle
Mass (kg)
RCS (m²)

Purposes: comms

External: N2YO · Heavens-Above · Gunter

§ Orbital elements

Epoch: 2026-07-17T02:01:35.160672Z

Period
87.54 min
Inclination
53.2029°
Eccentricity
0.0005453
Mean motion
16.44967354 rev/d
Perigee alt
149.1 km
Apogee alt
156.2 km
Semi-major
6,530.8 km
B*
2.5266e-4
RAAN
158.5075°
Arg perigee
255.7359°
Mean anomaly
104.3086°
Rev number
23,234

§ Raw data

STARLINK-38941 52499U 22049BA  26198.08443473  .08589609  12463-4  25266-3 0  99942 52499  53.2029 158.5075 0005453 255.7359 104.3086 16.44967354232341

JSON: /api/v1/satellites/52499 · /tle

For live sub-satellite position, see the globe view (requires WebGL).

§ Visibility from observer

Set your observer location to see the next 7 days of passes ≥ 10°. The values pass through the URL so the page stays shareable.

No JS? Fill the form by hand. The geolocation button needs JavaScript.